Location: Unspecified
(40.7945°N, 0.0000°E)
Time: 15:37:31
(UTC+00:00)

METEOR M2 - Pass Details

Date: 05 August 2020
Orbit: 819 x 827 km, 98.5° (Epoch: 23 September)

Event Time Altitude Azimuth Distance (km) Brightness Sun altitude
Rises 20:18:50 0° 195° (SSW) 3,349 ? -12.1°
Reaches altitude 10° 20:21:31 10° 207° (SSW) 2,420 ? -12.5°
Maximum altitude 20:26:03 28° 265° (W) 1,511 ? -13.2°
Drops below altitude 10° 20:30:37 10° 323° (NW) 2,430 ? -13.9°
Sets 20:33:19 0° 335° (NNW) 3,366 ? -14.3°
